When you browse on this site, cookies collect data to enhance your experience and personalize the content and advertising you see.
Visit our Privacy Policy to learn more. By continuing to use the site, you agree to this use of cookies and data.

Hourly Weather Benguela

Today, 13 August, Thursday

Time Temperature Precipitation Wind Pressure Humidity
00:00 +22°C° 0 mm 1 mps 761 mmHg 88%
01:00 +21°C° 0 mm 1 mps 760 mmHg 92%
02:00 +21°C° 0 mm 1 mps 760 mmHg 92%
03:00 +18°C° 0 mm 0 mps 760 mmHg 92%
04:00 +18°C° 0 mm 0 mps 759 mmHg 92%
05:00 +19°C° 0 mm 0 mps 760 mmHg 90%
06:00 +19°C° 0 mm 0 mps 760 mmHg 87%
07:00 +20°C° 0 mm 0 mps 760 mmHg 85%
08:00 +24°C° 0 mm 1 mps 760 mmHg 75%
09:00 +27°C° 0 mm 1 mps 760 mmHg 65%
10:00 +29°C° 0 mm 2 mps 760 mmHg 56%
11:00 +30°C° 0 mm 3 mps 759 mmHg 54%
12:00 +30°C° 0 mm 3 mps 758 mmHg 52%
13:00 +32°C° 0 mm 4 mps 757 mmHg 51%
14:00 +30°C° 0 mm 4 mps 757 mmHg 55%
15:00 +29°C° 0 mm 4 mps 756 mmHg 58%
16:00 +28°C° 0 mm 3 mps 756 mmHg 62%
17:00 +26°C° 0 mm 3 mps 757 mmHg 72%
18:00 +24°C° 0 mm 2 mps 757 mmHg 81%
19:00 +22°C° 0 mm 1 mps 758 mmHg 91%
20:00 +23°C° 0 mm 1 mps 759 mmHg 88%
21:00 +23°C° 0 mm 1 mps 759 mmHg 84%
22:00 +24°C° 0 mm 1 mps 760 mmHg 81%
23:00 +23°C° 0 mm 1 mps 760 mmHg 84%

Tomorrow, 14 August, Friday

Time Temperature Precipitation Wind Pressure Humidity
00:00 +20°C° 0 mm 0 mps 759 mmHg 87%
01:00 +19°C° 0 mm 0 mps 759 mmHg 90%
02:00 +19°C° 0 mm 0 mps 759 mmHg 90%
03:00 +18°C° 0 mm 0 mps 759 mmHg 91%
04:00 +18°C° 0 mm 0 mps 759 mmHg 91%
05:00 +19°C° 0 mm 0 mps 759 mmHg 90%
06:00 +21°C° 0 mm 1 mps 759 mmHg 88%
07:00 +22°C° 0 mm 1 mps 759 mmHg 86%
08:00 +24°C° 0 mm 1 mps 759 mmHg 77%
09:00 +26°C° 0 mm 2 mps 759 mmHg 68%
10:00 +28°C° 0 mm 2 mps 759 mmHg 59%
11:00 +29°C° 0 mm 3 mps 758 mmHg 58%
12:00 +29°C° 0 mm 4 mps 757 mmHg 57%
13:00 +30°C° 0 mm 4 mps 756 mmHg 56%
14:00 +29°C° 0 mm 4 mps 756 mmHg 58%
15:00 +28°C° 0 mm 4 mps 756 mmHg 61%
16:00 +28°C° 0 mm 4 mps 755 mmHg 63%
17:00 +26°C° 0 mm 3 mps 756 mmHg 69%
18:00 +25°C° 0 mm 3 mps 757 mmHg 76%
19:00 +23°C° 0 mm 2 mps 757 mmHg 82%
20:00 +24°C° 0 mm 2 mps 758 mmHg 81%
21:00 +24°C° 0 mm 2 mps 758 mmHg 79%
22:00 +24°C° 0 mm 2 mps 759 mmHg 78%
23:00 +21°C° 0 mm 2 mps 758 mmHg 82%

Day after tomorrow, 15 August, Saturday

Time Temperature Precipitation Wind Pressure Humidity
00:00 +21°C° 0 mm 1 mps 758 mmHg 86%
01:00 +20°C° 0 mm 1 mps 758 mmHg 91%
02:00 +20°C° 0 mm 1 mps 758 mmHg 92%
03:00 +19°C° 0 mm 1 mps 758 mmHg 93%
04:00 +19°C° 0 mm 1 mps 757 mmHg 94%
05:00 +20°C° 0 mm 1 mps 758 mmHg 93%
06:00 +20°C° 0 mm 1 mps 758 mmHg 92%
07:00 +21°C° 0 mm 1 mps 759 mmHg 91%
08:00 +22°C° 0 mm 1 mps 759 mmHg 84%
09:00 +24°C° 0 mm 1 mps 759 mmHg 77%
10:00 +25°C° 0 mm 2 mps 759 mmHg 70%
11:00 +26°C° 0 mm 2 mps 758 mmHg 67%
12:00 +27°C° 0 mm 3 mps 757 mmHg 63%
13:00 +28°C° 0 mm 4 mps 756 mmHg 60%
14:00 +27°C° 0 mm 4 mps 756 mmHg 62%
15:00 +27°C° 0 mm 3 mps 756 mmHg 64%
16:00 +26°C° 0 mm 3 mps 755 mmHg 66%
17:00 +25°C° 0 mm 3 mps 756 mmHg 71%
18:00 +24°C° 0 mm 3 mps 757 mmHg 76%
19:00 +22°C° 0 mm 3 mps 757 mmHg 81%
20:00 +23°C° 0 mm 2 mps 758 mmHg 80%
21:00 +23°C° 0 mm 2 mps 758 mmHg 79%
22:00 +23°C° 0 mm 1 mps 758 mmHg 77%
23:00 +22°C° 0 mm 1 mps 758 mmHg 81%

16 August, Sunday

Time Temperature Precipitation Wind Pressure Humidity
00:00 +21°C° 0 mm 1 mps 758 mmHg 84%
01:00 +21°C° 0 mm 1 mps 758 mmHg 87%
02:00 +20°C° 0 mm 1 mps 758 mmHg 89%
03:00 +19°C° 0 mm 1 mps 758 mmHg 90%
04:00 +19°C° 0 mm 1 mps 758 mmHg 92%
05:00 +20°C° 0 mm 1 mps 758 mmHg 90%
06:00 +18°C° 0 mm 0 mps 758 mmHg 88%
07:00 +19°C° 0 mm 0 mps 758 mmHg 86%
08:00 +23°C° 0 mm 1 mps 758 mmHg 77%
09:00 +25°C° 0 mm 1 mps 758 mmHg 68%
10:00 +27°C° 0 mm 2 mps 758 mmHg 58%
11:00 +27°C° 0 mm 3 mps 757 mmHg 58%
12:00 +28°C° 0 mm 4 mps 757 mmHg 58%
13:00 +28°C° 0 mm 4 mps 756 mmHg 57%
14:00 +27°C° 0 mm 4 mps 756 mmHg 60%
15:00 +27°C° 0 mm 4 mps 755 mmHg 64%
16:00 +26°C° 0 mm 4 mps 755 mmHg 67%
17:00 +25°C° 0 mm 3 mps 756 mmHg 71%
18:00 +24°C° 0 mm 3 mps 757 mmHg 75%
19:00 +23°C° 0 mm 2 mps 757 mmHg 79%
20:00 +23°C° 0 mm 2 mps 758 mmHg 79%
21:00 +23°C° 0 mm 1 mps 758 mmHg 79%
22:00 +23°C° 0 mm 1 mps 759 mmHg 79%
23:00 +22°C° 0 mm 1 mps 759 mmHg 81%

17 August, Monday

Time Temperature Precipitation Wind Pressure Humidity
00:00 +22°C° 0 mm 1 mps 759 mmHg 83%
01:00 +22°C° 0 mm 1 mps 759 mmHg 86%
02:00 +21°C° 0 mm 1 mps 758 mmHg 88%
03:00 +20°C° 0 mm 1 mps 758 mmHg 90%
04:00 +20°C° 0 mm 1 mps 758 mmHg 92%
05:00 +21°C° 0 mm 1 mps 758 mmHg 89%
06:00 +21°C° 0 mm 1 mps 759 mmHg 86%
07:00 +22°C° 0 mm 1 mps 759 mmHg 83%
08:00 +23°C° 0 mm 1 mps 759 mmHg 77%
09:00 +24°C° 0 mm 2 mps 759 mmHg 71%
10:00 +25°C° 0 mm 2 mps 759 mmHg 66%
11:00 +26°C° 0 mm 3 mps 758 mmHg 63%
12:00 +27°C° 0 mm 3 mps 758 mmHg 61%
13:00 +27°C° 0 mm 4 mps 757 mmHg 59%
14:00 +27°C° 0 mm 4 mps 756 mmHg 59%
15:00 +27°C° 0 mm 4 mps 756 mmHg 60%
16:00 +26°C° 0 mm 4 mps 756 mmHg 61%
17:00 +25°C° 0 mm 3 mps 756 mmHg 67%
18:00 +24°C° 0 mm 3 mps 757 mmHg 73%
19:00 +23°C° 0 mm 2 mps 758 mmHg 79%
20:00 +23°C° 0 mm 2 mps 758 mmHg 78%
21:00 +23°C° 0 mm 1 mps 759 mmHg 78%
22:00 +23°C° 0 mm 1 mps 759 mmHg 77%
23:00 +23°C° 0 mm 1 mps 759 mmHg 77%

18 August, Tuesday

Time Temperature Precipitation Wind Pressure Humidity
00:00 +23°C° 0 mm 1 mps 759 mmHg 76%
01:00 +23°C° 0 mm 1 mps 759 mmHg 76%
02:00 +23°C° 0 mm 1 mps 759 mmHg 77%
03:00 +22°C° 0 mm 1 mps 758 mmHg 79%
04:00 +22°C° 0 mm 1 mps 758 mmHg 81%
05:00 +22°C° 0 mm 1 mps 758 mmHg 82%
06:00 +22°C° 0 mm 1 mps 759 mmHg 83%
07:00 +19°C° 0 mm 0 mps 759 mmHg 84%
08:00 +23°C° 0 mm 1 mps 759 mmHg 78%
09:00 +24°C° 0 mm 2 mps 759 mmHg 71%
10:00 +26°C° 0 mm 2 mps 759 mmHg 64%
11:00 +26°C° 0 mm 3 mps 758 mmHg 63%
12:00 +26°C° 0 mm 4 mps 757 mmHg 63%
13:00 +27°C° 0 mm 4 mps 756 mmHg 62%
14:00 +26°C° 0 mm 4 mps 756 mmHg 63%
15:00 +26°C° 0 mm 4 mps 756 mmHg 65%
16:00 +25°C° 0 mm 4 mps 755 mmHg 67%
17:00 +24°C° 0 mm 3 mps 756 mmHg 70%
18:00 +24°C° 0 mm 3 mps 756 mmHg 74%
19:00 +23°C° 0 mm 2 mps 757 mmHg 77%
20:00 +23°C° 0 mm 2 mps 757 mmHg 77%
21:00 +23°C° 0 mm 1 mps 758 mmHg 76%
22:00 +23°C° 0 mm 1 mps 758 mmHg 76%
23:00 +22°C° 0 mm 1 mps 758 mmHg 78%
Show more